Year,Month,Day,Hour,Minute,Value (Times are PST for windgust in km/hr)
2012,03,12,00,00,20.90
2012,03,12,00,01,17.70
2012,03,12,00,02,22.50
2012,03,12,00,03,29.00
2012,03,12,00,04,25.70
2012,03,12,00,05,27.40
2012,03,12,00,06,27.40
2012,03,12,00,07,27.40
2012,03,12,00,08,25.70
2012,03,12,00,09,37.00
2012,03,12,00,10,32.20
2012,03,12,00,11,37.00
2012,03,12,00,12,35.40
2012,03,12,00,13,16.10
2012,03,12,00,14,24.20
2012,03,12,00,15,22.50
2012,03,12,00,16,27.40
2012,03,12,00,17,32.20
2012,03,12,00,18,20.90
2012,03,12,00,19,35.40
2012,03,12,00,20,22.50
2012,03,12,00,21,20.90
2012,03,12,00,22,30.60
2012,03,12,00,23,24.20
2012,03,12,00,24,35.40
2012,03,12,00,25,29.00
2012,03,12,00,26,19.30
2012,03,12,00,27,37.00
2012,03,12,00,28,22.50
2012,03,12,00,29,38.60
2012,03,12,00,30,32.20
2012,03,12,00,31,24.20
2012,03,12,00,32,32.20
2012,03,12,00,33,33.80
2012,03,12,00,34,32.20
2012,03,12,00,35,38.60
2012,03,12,00,36,32.20
2012,03,12,00,37,33.80
2012,03,12,00,38,29.00
2012,03,12,00,39,35.40
2012,03,12,00,40,24.20
2012,03,12,00,41,29.00
2012,03,12,00,42,30.60
2012,03,12,00,43,24.20
2012,03,12,00,44,32.20
2012,03,12,00,45,29.00
2012,03,12,00,46,40.20
2012,03,12,00,47,43.50
2012,03,12,00,48,33.80
2012,03,12,00,49,33.80
2012,03,12,00,50,38.60
2012,03,12,00,51,30.60
2012,03,12,00,52,25.70
2012,03,12,00,53,27.40
2012,03,12,00,54,33.80
2012,03,12,00,55,20.90
2012,03,12,00,56,25.70
2012,03,12,00,57,16.10
2012,03,12,00,58,22.50
2012,03,12,00,59,33.80
2012,03,12,01,00,29.00
2012,03,12,01,01,27.40
2012,03,12,01,02,30.60
2012,03,12,01,03,22.50
2012,03,12,01,04,27.40
2012,03,12,01,05,33.80
2012,03,12,01,06,38.60
2012,03,12,01,07,35.40
2012,03,12,01,08,24.20
2012,03,12,01,09,32.20
2012,03,12,01,10,25.70
2012,03,12,01,11,27.40
2012,03,12,01,12,24.20
2012,03,12,01,13,24.20
2012,03,12,01,14,22.50
2012,03,12,01,15,43.50
2012,03,12,01,16,33.80
2012,03,12,01,17,27.40
2012,03,12,01,18,25.70
2012,03,12,01,19,16.10
2012,03,12,01,20,19.30
2012,03,12,01,21,33.80
2012,03,12,01,22,24.20
2012,03,12,01,23,22.50
2012,03,12,01,24,30.60
2012,03,12,01,25,33.80
2012,03,12,01,26,25.70
2012,03,12,01,27,25.70
2012,03,12,01,28,40.20
2012,03,12,01,29,22.50
2012,03,12,01,30,22.50
2012,03,12,01,31,25.70
2012,03,12,01,32,30.60
2012,03,12,01,33,30.60
2012,03,12,01,34,20.90
2012,03,12,01,35,29.00
2012,03,12,01,36,40.20
2012,03,12,01,37,35.40
2012,03,12,01,38,35.40
2012,03,12,01,39,32.20
2012,03,12,01,40,41.80
2012,03,12,01,41,27.40
2012,03,12,01,42,22.50
2012,03,12,01,43,22.50
2012,03,12,01,44,25.70
2012,03,12,01,45,22.50
2012,03,12,01,46,33.80
2012,03,12,01,47,25.70
2012,03,12,01,48,20.90
2012,03,12,01,49,29.00
2012,03,12,01,50,29.00
2012,03,12,01,51,33.80
2012,03,12,01,52,35.40
2012,03,12,01,53,30.60
2012,03,12,01,54,29.00
2012,03,12,01,55,22.50
2012,03,12,01,56,41.80
2012,03,12,01,57,35.40
2012,03,12,01,58,16.10
2012,03,12,01,59,30.60
2012,03,12,02,00,37.00
2012,03,12,02,01,30.60
2012,03,12,02,02,27.40
2012,03,12,02,03,37.00
2012,03,12,02,04,27.40
2012,03,12,02,05,24.20
2012,03,12,02,06,37.00
2012,03,12,02,07,33.80
2012,03,12,02,08,24.20
2012,03,12,02,09,38.60
2012,03,12,02,10,35.40
2012,03,12,02,11,32.20
2012,03,12,02,12,41.80
2012,03,12,02,13,38.60
2012,03,12,02,14,29.00
2012,03,12,02,15,37.00
2012,03,12,02,16,30.60
2012,03,12,02,17,25.70
2012,03,12,02,18,40.20
2012,03,12,02,19,45.10
2012,03,12,02,20,41.80
2012,03,12,02,21,33.80
2012,03,12,02,22,22.50
2012,03,12,02,23,35.40
2012,03,12,02,24,30.60
2012,03,12,02,25,25.70
2012,03,12,02,26,20.90
2012,03,12,02,27,25.70
2012,03,12,02,28,30.60
2012,03,12,02,29,25.70
2012,03,12,02,30,27.40
2012,03,12,02,31,35.40
2012,03,12,02,32,29.00
2012,03,12,02,33,33.80
2012,03,12,02,34,33.80
2012,03,12,02,35,27.40
2012,03,12,02,36,30.60
2012,03,12,02,37,22.50
2012,03,12,02,38,25.70
2012,03,12,02,39,41.80
2012,03,12,02,40,30.60
2012,03,12,02,41,24.20
2012,03,12,02,42,32.20
2012,03,12,02,43,45.10
2012,03,12,02,44,37.00
2012,03,12,02,45,40.20
2012,03,12,02,46,33.80
2012,03,12,02,47,37.00
2012,03,12,02,48,43.50
2012,03,12,02,49,33.80
2012,03,12,02,50,20.90
2012,03,12,02,51,49.90
2012,03,12,02,52,30.60
2012,03,12,02,53,30.60
2012,03,12,02,54,33.80
2012,03,12,02,55,32.20
2012,03,12,02,56,46.70
2012,03,12,02,57,43.50
2012,03,12,02,58,46.70
2012,03,12,02,59,33.80
2012,03,12,03,00,41.80
2012,03,12,03,01,45.10
2012,03,12,03,02,29.00
2012,03,12,03,03,37.00
2012,03,12,03,04,38.60
2012,03,12,03,05,32.20
2012,03,12,03,06,25.70
2012,03,12,03,07,30.60
2012,03,12,03,08,27.40
2012,03,12,03,09,25.70
2012,03,12,03,10,30.60
2012,03,12,03,11,38.60
2012,03,12,03,12,41.80
2012,03,12,03,13,33.80
2012,03,12,03,14,32.20
2012,03,12,03,15,46.70
2012,03,12,03,16,37.00
2012,03,12,03,17,27.40
2012,03,12,03,18,32.20
2012,03,12,03,19,32.20
2012,03,12,03,20,45.10
2012,03,12,03,21,45.10
2012,03,12,03,22,48.30
2012,03,12,03,23,38.60
2012,03,12,03,24,29.00
2012,03,12,03,25,35.40
2012,03,12,03,26,37.00
2012,03,12,03,27,32.20
2012,03,12,03,28,37.00
2012,03,12,03,29,38.60
2012,03,12,03,30,32.20
2012,03,12,03,31,35.40
2012,03,12,03,32,33.80
2012,03,12,03,33,33.80
2012,03,12,03,34,38.60
2012,03,12,03,35,37.00
2012,03,12,03,36,40.20
2012,03,12,03,37,51.50
2012,03,12,03,38,40.20
2012,03,12,03,39,45.10
2012,03,12,03,40,40.20
2012,03,12,03,41,25.70
2012,03,12,03,42,27.40
2012,03,12,03,43,38.60
2012,03,12,03,44,38.60
2012,03,12,03,45,38.60
2012,03,12,03,46,40.20
2012,03,12,03,47,37.00
2012,03,12,03,48,37.00
2012,03,12,03,49,32.20
2012,03,12,03,50,32.20
2012,03,12,03,51,38.60
2012,03,12,03,52,49.90
2012,03,12,03,53,24.20
2012,03,12,03,54,45.10
2012,03,12,03,55,38.60
2012,03,12,03,56,48.30
2012,03,12,03,57,46.70
2012,03,12,03,58,38.60
2012,03,12,03,59,30.60
2012,03,12,04,00,38.60
2012,03,12,04,01,38.60
2012,03,12,04,02,62.70
2012,03,12,04,03,46.70
2012,03,12,04,04,32.20
2012,03,12,04,05,43.50
2012,03,12,04,06,35.40
2012,03,12,04,07,49.90
2012,03,12,04,08,45.10
2012,03,12,04,09,53.10
2012,03,12,04,10,51.50
2012,03,12,04,11,38.60
2012,03,12,04,12,33.80
2012,03,12,04,13,43.50
2012,03,12,04,14,35.40
2012,03,12,04,15,38.60
2012,03,12,04,16,43.50
2012,03,12,04,17,45.10
2012,03,12,04,18,45.10
2012,03,12,04,19,38.60
2012,03,12,04,20,45.10
2012,03,12,04,21,41.80
2012,03,12,04,22,48.30
2012,03,12,04,23,32.20
2012,03,12,04,24,43.50
2012,03,12,04,25,53.10
2012,03,12,04,26,51.50
2012,03,12,04,27,49.90
2012,03,12,04,28,45.10
2012,03,12,04,29,49.90
2012,03,12,04,30,46.70
2012,03,12,04,31,53.10
2012,03,12,04,32,49.90
2012,03,12,04,33,53.10
2012,03,12,04,34,45.10
2012,03,12,04,35,56.30
2012,03,12,04,36,53.10
2012,03,12,04,37,51.50
2012,03,12,04,38,46.70
2012,03,12,04,39,43.50
2012,03,12,04,40,29.00
2012,03,12,04,41,30.60
2012,03,12,04,42,32.20
2012,03,12,04,43,46.70
2012,03,12,04,44,53.10
2012,03,12,04,45,48.30
2012,03,12,04,46,33.80
2012,03,12,04,47,38.60
2012,03,12,04,48,40.20
2012,03,12,04,49,49.90
2012,03,12,04,50,41.80
2012,03,12,04,51,53.10
2012,03,12,04,52,53.10
2012,03,12,04,53,49.90
2012,03,12,04,54,51.50
2012,03,12,04,55,33.80
2012,03,12,04,56,54.70
2012,03,12,04,57,43.50
2012,03,12,04,58,46.70
2012,03,12,04,59,30.60
2012,03,12,05,00,38.60
2012,03,12,05,01,45.10
2012,03,12,05,02,45.10
2012,03,12,05,03,40.20
2012,03,12,05,04,45.10
2012,03,12,05,05,53.10
2012,03,12,05,06,53.10
2012,03,12,05,07,46.70
2012,03,12,05,08,54.70
2012,03,12,05,09,48.30
2012,03,12,05,10,53.10
2012,03,12,05,11,57.90
2012,03,12,05,12,48.30
2012,03,12,05,13,46.70
2012,03,12,05,14,51.50
2012,03,12,05,15,46.70
2012,03,12,05,16,51.50
2012,03,12,05,17,53.10
2012,03,12,05,18,41.80
2012,03,12,05,19,53.10
2012,03,12,05,20,57.90
2012,03,12,05,21,51.50
2012,03,12,05,22,46.70
2012,03,12,05,23,66.00
2012,03,12,05,24,56.30
2012,03,12,05,25,46.70
2012,03,12,05,26,53.10
2012,03,12,05,27,43.50
2012,03,12,05,28,38.60
2012,03,12,05,29,53.10
2012,03,12,05,30,53.10
2012,03,12,05,31,51.50
2012,03,12,05,32,54.70
2012,03,12,05,33,33.80
2012,03,12,05,34,48.30
2012,03,12,05,35,49.90
2012,03,12,05,36,56.30
2012,03,12,05,37,56.30
2012,03,12,05,38,49.90
2012,03,12,05,39,53.10
2012,03,12,05,40,56.30
2012,03,12,05,41,53.10
2012,03,12,05,42,48.30
2012,03,12,05,43,53.10
2012,03,12,05,44,43.50
2012,03,12,05,45,53.10
2012,03,12,05,48,57.90
2012,03,12,05,49,38.60
2012,03,12,05,50,45.10
2012,03,12,05,51,54.70
2012,03,12,05,52,49.90
2012,03,12,05,53,53.10
2012,03,12,05,54,51.50
2012,03,12,05,55,51.50
2012,03,12,05,56,54.70
2012,03,12,05,57,57.90
2012,03,12,05,58,53.10
2012,03,12,05,59,54.70
2012,03,12,06,00,51.50
2012,03,12,06,01,57.90
2012,03,12,06,02,49.90
2012,03,12,06,03,51.50
2012,03,12,06,04,40.20
2012,03,12,06,05,40.20
2012,03,12,06,06,45.10
2012,03,12,06,07,30.60
2012,03,12,06,08,33.80
2012,03,12,06,09,46.70
2012,03,12,06,10,53.10
2012,03,12,06,11,41.80
2012,03,12,06,12,45.10
2012,03,12,06,13,53.10
2012,03,12,06,14,49.90
2012,03,12,06,15,48.30
2012,03,12,06,16,40.20
2012,03,12,06,17,54.70
2012,03,12,06,18,51.50
2012,03,12,06,19,43.50
2012,03,12,06,20,48.30
2012,03,12,06,21,46.70
2012,03,12,06,22,48.30
2012,03,12,06,23,46.70
2012,03,12,06,24,37.00
2012,03,12,06,25,38.60
2012,03,12,06,26,38.60
2012,03,12,06,27,40.20
2012,03,12,06,28,35.40
2012,03,12,06,29,35.40
2012,03,12,06,30,64.40
2012,03,12,06,31,59.50
2012,03,12,06,32,41.80
2012,03,12,06,33,33.80
2012,03,12,06,34,48.30
2012,03,12,06,35,41.80
2012,03,12,06,36,57.90
2012,03,12,06,37,54.70
2012,03,12,06,38,54.70
2012,03,12,06,39,56.30
2012,03,12,06,40,51.50
2012,03,12,06,41,45.10
2012,03,12,06,42,38.60
2012,03,12,06,43,59.50
2012,03,12,06,44,61.20
2012,03,12,06,45,56.30
2012,03,12,06,46,48.30
2012,03,12,06,47,38.60
2012,03,12,06,48,62.70
2012,03,12,06,49,59.50
2012,03,12,06,50,62.70
2012,03,12,06,51,41.80
2012,03,12,06,52,53.10
2012,03,12,06,53,64.40
2012,03,12,06,54,45.10
2012,03,12,06,55,48.30
2012,03,12,06,56,53.10
2012,03,12,06,57,53.10
2012,03,12,06,58,62.70
2012,03,12,06,59,49.90
2012,03,12,07,00,51.50
2012,03,12,07,01,46.70
2012,03,12,07,02,51.50
2012,03,12,07,03,57.90
2012,03,12,07,04,53.10
2012,03,12,07,05,45.10
2012,03,12,07,06,37.00
2012,03,12,07,07,61.20
2012,03,12,07,08,59.50
2012,03,12,07,09,62.70
2012,03,12,07,10,54.70
2012,03,12,07,11,78.80
2012,03,12,07,12,53.10
2012,03,12,07,15,37.00
2012,03,12,07,16,46.70
2012,03,12,07,17,41.80
2012,03,12,07,18,59.50
2012,03,12,07,19,53.10
2012,03,12,07,20,49.90
2012,03,12,07,21,59.50
2012,03,12,07,22,46.70
2012,03,12,07,23,51.50
2012,03,12,07,24,53.10
2012,03,12,07,25,54.70
2012,03,12,07,26,57.90
2012,03,12,07,27,59.50
2012,03,12,07,28,57.90
2012,03,12,07,29,64.40
2012,03,12,07,30,59.50
2012,03,12,07,31,56.30
2012,03,12,07,32,64.40
2012,03,12,07,33,37.00
2012,03,12,07,34,48.30
2012,03,12,22,18,4.80
2012,03,12,22,19,4.80
2012,03,12,22,20,6.40
2012,03,12,22,21,4.80
2012,03,12,22,22,4.80
2012,03,12,22,23,3.20
2012,03,12,22,24,6.40
2012,03,12,22,25,3.20
2012,03,12,22,26,8.10
2012,03,12,22,27,9.60
2012,03,12,22,28,9.60
2012,03,12,22,29,8.10
2012,03,12,22,30,6.40
2012,03,12,22,31,6.40
2012,03,12,22,32,6.40
2012,03,12,22,33,9.60
2012,03,12,22,34,11.30
2012,03,12,22,35,9.60
2012,03,12,22,36,16.10
2012,03,12,22,37,16.10
2012,03,12,22,38,12.90
2012,03,12,22,39,12.90
2012,03,12,22,40,11.30
2012,03,12,22,41,17.70
2012,03,12,22,42,12.90
2012,03,12,22,43,12.90
2012,03,12,22,44,9.60
2012,03,12,22,45,11.30
2012,03,12,22,46,12.90
2012,03,12,22,47,8.10
2012,03,12,22,48,11.30
2012,03,12,22,49,8.10
2012,03,12,22,50,8.10
2012,03,12,22,51,9.60
2012,03,12,22,52,8.10
2012,03,12,22,53,6.40
2012,03,12,22,54,8.10
2012,03,12,22,55,8.10
2012,03,12,22,56,6.40
2012,03,12,22,57,6.40
2012,03,12,22,58,9.60
2012,03,12,22,59,16.10
2012,03,12,23,00,6.40
2012,03,12,23,02,3.20
2012,03,12,23,03,4.80
2012,03,12,23,04,6.40
2012,03,12,23,05,3.20
2012,03,12,23,07,6.40
2012,03,12,23,08,4.80
2012,03,12,23,09,4.80
2012,03,12,23,10,6.40
2012,03,12,23,11,6.40
2012,03,12,23,12,9.60
2012,03,12,23,13,11.30
2012,03,12,23,14,6.40
2012,03,12,23,17,3.20
2012,03,12,23,18,1.60
2012,03,12,23,19,4.80
2012,03,12,23,20,3.20
2012,03,12,23,21,1.60
2012,03,12,23,22,4.80
2012,03,12,23,23,4.80
2012,03,12,23,24,4.80
2012,03,12,23,25,3.20
2012,03,12,23,27,1.60
2012,03,12,23,28,6.40
2012,03,12,23,29,8.10
2012,03,12,23,30,1.60
2012,03,12,23,31,8.10
2012,03,12,23,32,6.40
2012,03,12,23,33,8.10
2012,03,12,23,34,6.40
2012,03,12,23,35,6.40
2012,03,12,23,36,4.80
2012,03,12,23,37,8.10
2012,03,12,23,38,8.10
2012,03,12,23,39,6.40
2012,03,12,23,40,6.40
2012,03,12,23,41,6.40
2012,03,12,23,42,6.40
2012,03,12,23,43,4.80
2012,03,12,23,44,6.40
2012,03,12,23,45,6.40
2012,03,12,23,46,6.40
2012,03,12,23,47,6.40
2012,03,12,23,48,4.80
2012,03,12,23,49,3.20
2012,03,12,23,50,1.60
2012,03,12,23,51,3.20
2012,03,12,23,52,1.60
2012,03,12,23,53,1.60
